QPF
0.01 0.00 0.00 0.00 0.00 0.01 0.02 0.04 0.02 0.05 0.06 0.03 0.01 0.01 0.01 0.00 0.00 0.01 0.02 0.01 0.00 0.00 0.01 0.01 0.01 0.00 0.00 0.00 0.00 0.01 0.01 0.01 0.01 0.00 0.00 0.00 0.00 0.01 0.01 0.02 0.02 0.03 0.04
0.01 0.02 0.02 0.04 0.03 0.02 0.02 0.04 0.03 0.07 0.06 0.05 0.03 0.01 0.01 0.00 0.00 0.00 0.01 0.02 0.01 0.00 0.00 0.00 0.01 0.01 0.00 0.00 0.00 0.00 0.00 0.00 0.00 0.00 0.00 0.00 0.00 0.00 0.00 0.01 0.01 0.02 0.02
0.03 0.04 0.06 0.08 0.08 0.07 0.08 0.08 0.08 0.09 0.08 0.08 0.07 0.03 0.01 0.01 0.00 0.00 0.00 0.00 0.00 0.01 0.00 0.01 0.01 0.01 0.01 0.01 0.00 0.00 0.00 0.00 0.00 0.00 0.00 0.00 0.00 0.00 0.00 0.00 0.01 0.01 0.02
0.06 0.10 0.12 0.12 0.16 0.14 0.13 0.16 0.15 0.16 0.16 0.14 0.10 0.04 0.01 0.01 0.00 0.00 0.00 0.00 0.00 0.00 0.01 0.02 0.03 0.02 0.01 0.01 0.01 0.01 0.00 0.00 0.00 0.00 0.00 0.00 0.00 0.00 0.00 0.00 0.00 0.00 0.01
0.09 0.12 0.14 0.16 0.17 0.16 0.17 0.14 0.19 0.21 0.20 0.18 0.11 0.06 0.02 0.01 0.00 0.00 0.00 0.00 0.00 0.00 0.00 0.01 0.01 0.01 0.02 0.02 0.02 0.02 0.01 0.01 0.00 0.00 0.00 0.00 0.00 0.00 0.00 0.00 0.00 0.00 0.00
0.11 0.13 0.13 0.14 0.16 0.18 0.18 0.20 0.20 0.19 0.18 0.17 0.10 0.05 0.02 0.01 0.00 0.00 0.00 0.00 0.00 0.00 0.00 0.00 0.04 0.02 0.02 0.02 0.03 0.03 0.03 0.02 0.01 0.00 0.00 0.00 0.00 0.00 0.00 0.00 0.00 0.00 0.00
0.13 0.14 0.13 0.17 0.18 0.19 0.20 0.21 0.21 0.20 0.18 0.18 0.14 0.08 0.03 0.01 0.00 0.00 0.00 0.00 0.00 0.00 0.00 0.00 0.02 0.03 0.05 0.04 0.03 0.04 0.04 0.04 0.03 0.01 0.01 0.01 0.01 0.01 0.01 0.01 0.01 0.00 0.00
0.15 0.13 0.14 0.17 0.18 0.18 0.17 0.18 0.20 0.20 0.16 0.15 0.14 0.11 0.06 0.02 0.00 0.00 0.00 0.00 0.00 0.00 0.00 0.01 0.02 0.05 0.04 0.08 0.09 0.05 0.06 0.06 0.06 0.05 0.04 0.02 0.02 0.02 0.02 0.02 0.02 0.01 0.01
0.16 0.15 0.16 0.17 0.17 0.15 0.15 0.15 0.15 0.17 0.16 0.13 0.13 0.13 0.10 0.04 0.02 0.00 0.00 0.00 0.01 0.02 0.01 0.02 0.03 0.06 0.07 0.11 0.18 0.15 0.06 0.05 0.06 0.09 0.09 0.07 0.05 0.03 0.03 0.03 0.04 0.03 0.02
0.21 0.19 0.17 0.14 0.14 0.15 0.14 0.12 0.13 0.15 0.14 0.12 0.11 0.13 0.12 0.10 0.08 0.02 0.01 0.04 0.06 0.06 0.05 0.04 0.03 0.04 0.07 0.13 0.20 0.20 0.13 0.08 0.07 0.10 0.12 0.11 0.09 0.06 0.05 0.06 0.08 0.09 0.06
0.20 0.17 0.14 0.12 0.12 0.14 0.13 0.13 0.13 0.12 0.13 0.12 0.12 0.13 0.14 0.14 0.14 0.09 0.04 0.06 0.09 0.11 0.13 0.11 0.10 0.11 0.11 0.13 0.15 0.16 0.18 0.13 0.10 0.08 0.07 0.08 0.08 0.07 0.07 0.08 0.11 0.14 0.13
0.21 0.16 0.14 0.13 0.12 0.13 0.13 0.13 0.13 0.13 0.13 0.14 0.14 0.14 0.13 0.11 0.12 0.12 0.08 0.08 0.08 0.12 0.16 0.16 0.16 0.15 0.13 0.11 0.12 0.13 0.12 0.10 0.08 0.07 0.05 0.05 0.05 0.05 0.06 0.07 0.09 0.11 0.12
0.18 0.17 0.13 0.12 0.12 0.13 0.15 0.14 0.14 0.15 0.15 0.15 0.15 0.14 0.12 0.11 0.10 0.10 0.10 0.09 0.09 0.11 0.15 0.17 0.15 0.13 0.09 0.11 0.14 0.11 0.07 0.05 0.03 0.03 0.03 0.04 0.04 0.04 0.04 0.04 0.05 0.06 0.08
0.18 0.17 0.15 0.14 0.14 0.14 0.12 0.13 0.14 0.14 0.15 0.15 0.14 0.13 0.11 0.09 0.08 0.06 0.06 0.05 0.05 0.07 0.11 0.13 0.11 0.10 0.09 0.11 0.10 0.06 0.06 0.04 0.02 0.02 0.02 0.03 0.03 0.04 0.03 0.03 0.02 0.03 0.03
0.18 0.19 0.18 0.19 0.18 0.16 0.13 0.13 0.15 0.16 0.17 0.15 0.14 0.12 0.11 0.09 0.07 0.05 0.04 0.03 0.02 0.03 0.05 0.06 0.04 0.03 0.03 0.05 0.04 0.04 0.12 0.09 0.03 0.01 0.01 0.01 0.02 0.02 0.02 0.02 0.02 0.02 0.02
0.16 0.17 0.18 0.19 0.17 0.13 0.12 0.12 0.15 0.16 0.16 0.16 0.13 0.13 0.11 0.09 0.07 0.05 0.04 0.03 0.03 0.02 0.02 0.03 0.03 0.03 0.03 0.02 0.02 0.04 0.07 0.06 0.03 0.02 0.02 0.02 0.02 0.02 0.02 0.02 0.01 0.01 0.01
0.18 0.19 0.20 0.19 0.17 0.14 0.12 0.13 0.16 0.17 0.18 0.17 0.15 0.13 0.09 0.05 0.04 0.04 0.03 0.03 0.03 0.02 0.02 0.04 0.06 0.07 0.06 0.05 0.04 0.05 0.05 0.05 0.07 0.04 0.03 0.02 0.02 0.02 0.02 0.02 0.02 0.01 0.01
0.15 0.16 0.17 0.18 0.17 0.15 0.14 0.15 0.16 0.17 0.18 0.16 0.12 0.08 0.05 0.03 0.03 0.02 0.01 0.01 0.02 0.02 0.02 0.04 0.06 0.07 0.07 0.07 0.06 0.06 0.04 0.04 0.07 0.05 0.04 0.03 0.03 0.03 0.02 0.02 0.02 0.02 0.02
0.13 0.13 0.15 0.16 0.16 0.16 0.16 0.16 0.15 0.12 0.10 0.08 0.06 0.03 0.01 0.01 0.01 0.01 0.01 0.01 0.01 0.01 0.03 0.05 0.06 0.07 0.07 0.07 0.06 0.07 0.08 0.10 0.08 0.07 0.05 0.04 0.03 0.03 0.03 0.03 0.03 0.04 0.04
0.12 0.15 0.17 0.17 0.19 0.18 0.16 0.12 0.09 0.07 0.04 0.03 0.01 0.00 0.00 0.00 0.00 0.00 0.00 0.00 0.01 0.02 0.03 0.04 0.04 0.04 0.04 0.03 0.05 0.05 0.07 0.10 0.12 0.12 0.09 0.06 0.04 0.04 0.04 0.04 0.04 0.06 0.08
0.10 0.14 0.15 0.15 0.14 0.13 0.10 0.09 0.07 0.04 0.01 0.00 0.00 0.00 0.00 0.00 0.00 0.00 0.00 0.00 0.00 0.01 0.01 0.02 0.02 0.01 0.01 0.01 0.01 0.02 0.04 0.09 0.13 0.11 0.12 0.12 0.10 0.09 0.10 0.10 0.09 0.09 0.14
0.07 0.09 0.09 0.07 0.04 0.02 0.02 0.02 0.02 0.01 0.00 0.00 0.00 0.00 0.00 0.00 0.00 0.00 0.00 0.00 0.00 0.00 0.00 0.01 0.01 0.01 0.01 0.00 0.01 0.02 0.03 0.04 0.06 0.07 0.09 0.13 0.14 0.14 0.15 0.13 0.12 0.13 0.18
0.06 0.06 0.04 0.02 0.01 0.00 0.00 0.00 0.00 0.00 0.00 0.00 0.00 0.00 0.00 0.00 0.00 0.01 0.01 0.00 0.00 0.00 0.00 0.01 0.01 0.00 0.00 0.00 0.02 0.03 0.04 0.05 0.05 0.04 0.05 0.10 0.14 0.18 0.19 0.17 0.14 0.12 0.19
0.05 0.05 0.03 0.01 0.00 0.00 0.00 0.00 0.00 0.00 0.00 0.00 0.00 0.00 0.00 0.00 0.00 0.00 0.02 0.02 0.01 0.00 0.00 0.00 0.00 0.00 0.00 0.00 0.01 0.03 0.05 0.09 0.09 0.06 0.04 0.06 0.11 0.15 0.18 0.18 0.18 0.17 0.21
0.05 0.05 0.03 0.01 0.00 0.00 0.00 0.00 0.00 0.01 0.01 0.00 0.00 0.00 0.00 0.00 0.00 0.00 0.01 0.02 0.01 0.01 0.00 0.00 0.00 0.00 0.00 0.00 0.00 0.02 0.04 0.06 0.08 0.08 0.05 0.06 0.07 0.11 0.19 0.20 0.17 0.18 0.20
0.06 0.05 0.04 0.03 0.01 0.00 0.00 0.00 0.00 0.01 0.01 0.00 0.00 0.00 0.00 0.00 0.00 0.00 0.00 0.01 0.01 0.00 0.00 0.00 0.00 0.00 0.01 0.00 0.00 0.02 0.02 0.04 0.05 0.06 0.06 0.07 0.08 0.09 0.14 0.18 0.18 0.17 0.18
MSLP
1011.61 1011.78 1011.92 1012.07 1012.22 1012.42 1012.66 1012.92 1013.17 1013.37 1013.46 1013.42 1013.24 1012.94 1012.56 1012.17 1011.82 1011.57 1011.47 1011.51 1011.69 1011.97 1012.29 1012.62 1012.90 1013.12 1013.28 1013.38 1013.45 1013.52 1013.62 1013.75 1013.95 1014.19 1014.47 1014.78 1015.10 1015.42 1015.73 1016.02 1016.31 1016.58 1016.86
1010.93 1011.16 1011.37 1011.58 1011.81 1012.06 1012.34 1012.62 1012.89 1013.09 1013.19 1013.15 1012.97 1012.65 1012.24 1011.80 1011.38 1011.06 1010.87 1010.84 1010.97 1011.21 1011.53 1011.88 1012.22 1012.50 1012.72 1012.87 1012.98 1013.07 1013.17 1013.30 1013.47 1013.70 1013.98 1014.29 1014.62 1014.94 1015.26 1015.56 1015.84 1016.12 1016.40
1010.38 1010.66 1010.93 1011.21 1011.50 1011.81 1012.12 1012.43 1012.71 1012.92 1013.02 1012.99 1012.80 1012.47 1012.03 1011.53 1011.03 1010.61 1010.31 1010.17 1010.19 1010.37 1010.65 1011.00 1011.36 1011.70 1011.98 1012.20 1012.37 1012.50 1012.62 1012.77 1012.96 1013.19 1013.48 1013.80 1014.13 1014.47 1014.79 1015.10 1015.39 1015.67 1015.96
1009.98 1010.29 1010.62 1010.96 1011.31 1011.65 1011.99 1012.32 1012.61 1012.82 1012.92 1012.89 1012.70 1012.36 1011.89 1011.34 1010.76 1010.23 1009.81 1009.53 1009.43 1009.50 1009.71 1010.02 1010.39 1010.76 1011.10 1011.38 1011.61 1011.81 1011.98 1012.16 1012.38 1012.64 1012.94 1013.28 1013.63 1013.98 1014.32 1014.63 1014.93 1015.22 1015.52
1009.71 1010.05 1010.41 1010.79 1011.17 1011.55 1011.90 1012.23 1012.52 1012.72 1012.83 1012.80 1012.62 1012.28 1011.80 1011.21 1010.56 1009.94 1009.39 1008.98 1008.74 1008.69 1008.80 1009.05 1009.39 1009.77 1010.15 1010.49 1010.78 1011.04 1011.27 1011.50 1011.75 1012.04 1012.37 1012.73 1013.10 1013.47 1013.82 1014.14 1014.44 1014.74 1015.04
1009.52 1009.86 1010.25 1010.66 1011.06 1011.44 1011.80 1012.12 1012.39 1012.59 1012.69 1012.67 1012.50 1012.18 1011.71 1011.12 1010.44 1009.75 1009.11 1008.58 1008.22 1008.04 1008.04 1008.21 1008.50 1008.86 1009.25 1009.62 1009.96 1010.27 1010.55 1010.83 1011.13 1011.45 1011.80 1012.17 1012.55 1012.93 1013.28 1013.61 1013.91 1014.20 1014.50
1009.35 1009.69 1010.08 1010.50 1010.90 1011.29 1011.63 1011.93 1012.18 1012.37 1012.47 1012.46 1012.33 1012.05 1011.62 1011.06 1010.39 1009.68 1008.99 1008.38 1007.92 1007.63 1007.53 1007.60 1007.83 1008.15 1008.52 1008.90 1009.26 1009.60 1009.92 1010.23 1010.55 1010.89 1011.25 1011.63 1012.01 1012.38 1012.72 1013.04 1013.33 1013.60 1013.89
1009.14 1009.47 1009.86 1010.27 1010.67 1011.04 1011.36 1011.64 1011.87 1012.04 1012.14 1012.17 1012.08 1011.87 1011.51 1011.02 1010.41 1009.73 1009.04 1008.40 1007.88 1007.51 1007.32 1007.31 1007.46 1007.72 1008.05 1008.41 1008.77 1009.11 1009.43 1009.75 1010.07 1010.40 1010.76 1011.12 1011.49 1011.84 1012.16 1012.45 1012.72 1012.97 1013.23
1008.87 1009.17 1009.55 1009.94 1010.33 1010.69 1010.99 1011.24 1011.44 1011.61 1011.72 1011.78 1011.76 1011.63 1011.37 1010.98 1010.48 1009.87 1009.23 1008.62 1008.08 1007.67 1007.42 1007.34 1007.41 1007.60 1007.87 1008.18 1008.50 1008.82 1009.12 1009.42 1009.71 1010.02 1010.34 1010.68 1011.01 1011.33 1011.62 1011.87 1012.11 1012.33 1012.55
1008.53 1008.80 1009.15 1009.53 1009.90 1010.23 1010.51 1010.74 1010.93 1011.09 1011.22 1011.32 1011.37 1011.34 1011.20 1010.94 1010.56 1010.07 1009.52 1008.96 1008.45 1008.03 1007.75 1007.61 1007.61 1007.73 1007.93 1008.18 1008.44 1008.71 1008.96 1009.21 1009.46 1009.73 1010.01 1010.30 1010.59 1010.86 1011.11 1011.34 1011.53 1011.71 1011.90
1008.15 1008.39 1008.71 1009.07 1009.41 1009.71 1009.97 1010.17 1010.35 1010.52 1010.67 1010.82 1010.95 1011.01 1011.00 1010.87 1010.62 1010.26 1009.82 1009.35 1008.89 1008.49 1008.19 1008.02 1007.96 1008.01 1008.14 1008.31 1008.50 1008.70 1008.89 1009.08 1009.28 1009.49 1009.72 1009.97 1010.21 1010.45 1010.67 1010.85 1011.01 1011.15 1011.30
1007.78 1007.99 1008.28 1008.60 1008.90 1009.18 1009.41 1009.60 1009.77 1009.94 1010.12 1010.31 1010.50 1010.65 1010.74 1010.74 1010.62 1010.39 1010.06 1009.68 1009.28 1008.92 1008.63 1008.43 1008.33 1008.32 1008.38 1008.47 1008.59 1008.71 1008.83 1008.96 1009.10 1009.27 1009.45 1009.66 1009.87 1010.08 1010.27 1010.42 1010.55 1010.66 1010.77
1007.49 1007.66 1007.91 1008.18 1008.44 1008.68 1008.88 1009.05 1009.22 1009.39 1009.59 1009.82 1010.05 1010.28 1010.45 1010.54 1010.53 1010.41 1010.18 1009.89 1009.56 1009.24 1008.97 1008.76 1008.63 1008.57 1008.56 1008.59 1008.63 1008.68 1008.74 1008.81 1008.90 1009.02 1009.18 1009.35 1009.55 1009.74 1009.91 1010.05 1010.15 1010.22 1010.29
1007.33 1007.46 1007.65 1007.87 1008.09 1008.28 1008.45 1008.61 1008.76 1008.93 1009.14 1009.39 1009.66 1009.92 1010.15 1010.31 1010.37 1010.33 1010.18 1009.96 1009.70 1009.42 1009.17 1008.97 1008.82 1008.72 1008.66 1008.63 1008.61 1008.60 1008.60 1008.62 1008.67 1008.76 1008.89 1009.05 1009.23 1009.42 1009.58 1009.70 1009.78 1009.81 1009.83
1007.32 1007.41 1007.55 1007.71 1007.88 1008.03 1008.17 1008.30 1008.44 1008.61 1008.82 1009.07 1009.35 1009.64 1009.89 1010.08 1010.18 1010.19 1010.10 1009.93 1009.72 1009.49 1009.26 1009.07 1008.91 1008.79 1008.69 1008.61 1008.54 1008.48 1008.43 1008.41 1008.43 1008.49 1008.61 1008.76 1008.94 1009.11 1009.26 1009.37 1009.41 1009.40 1009.36
1007.48 1007.52 1007.61 1007.73 1007.85 1007.97 1008.07 1008.18 1008.31 1008.47 1008.67 1008.92 1009.19 1009.46 1009.71 1009.91 1010.03 1010.06 1010.00 1009.88 1009.70 1009.51 1009.32 1009.14 1008.99 1008.85 1008.73 1008.62 1008.50 1008.39 1008.30 1008.24 1008.23 1008.27 1008.37 1008.51 1008.67 1008.83 1008.96 1009.03 1009.03 1008.96 1008.84
1007.77 1007.79 1007.85 1007.92 1008.01 1008.09 1008.17 1008.27 1008.38 1008.53 1008.72 1008.95 1009.20 1009.45 1009.68 1009.86 1009.97 1010.01 1009.97 1009.88 1009.74 1009.59 1009.43 1009.28 1009.13 1008.99 1008.86 1008.71 1008.56 1008.41 1008.28 1008.18 1008.13 1008.14 1008.21 1008.33 1008.46 1008.59 1008.68 1008.70 1008.63 1008.48 1008.27
1008.15 1008.16 1008.20 1008.25 1008.31 1008.38 1008.45 1008.53 1008.64 1008.79 1008.96 1009.17 1009.40 1009.62 1009.81 1009.97 1010.06 1010.10 1010.07 1010.00 1009.90 1009.78 1009.65 1009.53 1009.41 1009.27 1009.12 1008.95 1008.77 1008.58 1008.41 1008.27 1008.17 1008.14 1008.17 1008.24 1008.33 1008.40 1008.42 1008.37 1008.22 1007.98 1007.67
1008.56 1008.58 1008.62 1008.67 1008.72 1008.79 1008.86 1008.95 1009.06 1009.20 1009.37 1009.56 1009.75 1009.94 1010.11 1010.23 1010.31 1010.33 1010.31 1010.26 1010.19 1010.10 1010.02 1009.92 1009.81 1009.69 1009.53 1009.34 1009.13 1008.90 1008.69 1008.50 1008.36 1008.27 1008.24 1008.25 1008.27 1008.27 1008.21 1008.07 1007.82 1007.49 1007.09
1008.95 1008.99 1009.05 1009.11 1009.18 1009.26 1009.34 1009.44 1009.56 1009.71 1009.87 1010.05 1010.22 1010.38 1010.52 1010.61 1010.67 1010.68 1010.67 1010.63 1010.58 1010.53 1010.47 1010.40 1010.31 1010.19 1010.03 1009.82 1009.59 1009.33 1009.07 1008.83 1008.64 1008.50 1008.41 1008.34 1008.29 1008.20 1008.06 1007.82 1007.49 1007.06 1006.58
1009.26 1009.35 1009.44 1009.53 1009.62 1009.72 1009.83 1009.95 1010.09 1010.25 1010.41 1010.58 1010.74 1010.88 1010.99 1011.06 1011.09 1011.10 1011.08 1011.06 1011.03 1010.99 1010.95 1010.90 1010.82 1010.70 1010.54 1010.32 1010.06 1009.77 1009.48 1009.21 1008.97 1008.78 1008.63 1008.50 1008.37 1008.21 1007.98 1007.66 1007.25 1006.75 1006.20
1009.49 1009.61 1009.74 1009.87 1009.99 1010.12 1010.26 1010.41 1010.58 1010.75 1010.93 1011.10 1011.25 1011.37 1011.45 1011.50 1011.52 1011.51 1011.49 1011.46 1011.43 1011.41 1011.38 1011.33 1011.26 1011.13 1010.96 1010.73 1010.46 1010.16 1009.85 1009.56 1009.29 1009.06 1008.87 1008.69 1008.50 1008.28 1007.98 1007.60 1007.13 1006.59 1006.01
1009.60 1009.78 1009.94 1010.10 1010.26 1010.43 1010.60 1010.78 1010.98 1011.17 1011.37 1011.54 1011.69 1011.80 1011.87 1011.90 1011.90 1011.87 1011.84 1011.80 1011.76 1011.73 1011.69 1011.64 1011.55 1011.42 1011.24 1011.01 1010.74 1010.44 1010.13 1009.83 1009.56 1009.31 1009.10 1008.89 1008.67 1008.40 1008.07 1007.66 1007.16 1006.61 1006.03
1009.62 1009.83 1010.04 1010.23 1010.43 1010.63 1010.83 1011.05 1011.28 1011.50 1011.71 1011.90 1012.05 1012.15 1012.21 1012.23 1012.21 1012.16 1012.11 1012.04 1011.99 1011.93 1011.87 1011.80 1011.70 1011.56 1011.38 1011.15 1010.88 1010.59 1010.30 1010.01 1009.75 1009.52 1009.30 1009.09 1008.86 1008.58 1008.24 1007.82 1007.33 1006.80 1006.26
1009.55 1009.80 1010.04 1010.27 1010.50 1010.73 1010.98 1011.23 1011.48 1011.74 1011.97 1012.17 1012.33 1012.44 1012.49 1012.49 1012.46 1012.39 1012.31 1012.22 1012.14 1012.06 1011.97 1011.88 1011.76 1011.61 1011.42 1011.19 1010.94 1010.67 1010.40 1010.14 1009.91 1009.69 1009.50 1009.30 1009.07 1008.80 1008.47 1008.08 1007.62 1007.13 1006.65
1009.41 1009.71 1009.98 1010.25 1010.51 1010.78 1011.06 1011.34 1011.63 1011.91 1012.16 1012.38 1012.55 1012.66 1012.71 1012.71 1012.67 1012.59 1012.49 1012.38 1012.28 1012.17 1012.06 1011.94 1011.80 1011.63 1011.44 1011.22 1010.98 1010.74 1010.49 1010.27 1010.06 1009.87 1009.70 1009.52 1009.31 1009.06 1008.76 1008.40 1007.99 1007.56 1007.14
Thickness
5796 5795 5794 5791 5788 5787 5785 5782 5781 5780 5778 5777 5778 5779 5779 5780 5780 5780 5780 5778 5777 5775 5773 5770 5767 5765 5763 5762 5761 5760 5759 5757 5755 5753 5751 5749 5747 5745 5742 5739 5737 5734 5731
5797 5794 5792 5789 5786 5784 5782 5780 5779 5777 5775 5774 5774 5776 5777 5778 5779 5780 5780 5780 5778 5777 5775 5772 5770 5767 5764 5762 5761 5760 5759 5758 5756 5754 5752 5750 5748 5746 5743 5741 5738 5735 5733
5795 5792 5788 5785 5783 5780 5779 5776 5774 5772 5770 5769 5769 5770 5773 5775 5777 5779 5780 5780 5779 5777 5775 5773 5771 5768 5765 5763 5761 5760 5758 5757 5756 5754 5752 5750 5748 5746 5744 5741 5739 5736 5734
5792 5788 5784 5781 5779 5776 5773 5770 5768 5765 5763 5760 5760 5763 5767 5771 5774 5777 5778 5778 5778 5778 5777 5774 5771 5768 5766 5763 5761 5759 5757 5756 5755 5753 5751 5749 5747 5745 5743 5741 5739 5736 5734
5788 5783 5779 5776 5773 5769 5766 5764 5762 5758 5754 5752 5752 5755 5760 5764 5769 5773 5776 5777 5778 5777 5777 5776 5773 5770 5766 5763 5761 5758 5756 5755 5753 5752 5750 5748 5746 5744 5742 5740 5738 5736 5733
5782 5778 5773 5770 5766 5762 5759 5757 5754 5751 5747 5745 5745 5748 5751 5757 5764 5768 5771 5774 5775 5775 5776 5775 5773 5770 5766 5763 5760 5758 5755 5753 5751 5749 5748 5746 5744 5742 5740 5738 5736 5734 5732
5774 5770 5766 5763 5760 5755 5752 5750 5747 5744 5741 5739 5735 5736 5743 5751 5758 5764 5769 5770 5771 5772 5773 5772 5772 5769 5766 5762 5759 5756 5754 5751 5749 5747 5745 5744 5742 5740 5738 5737 5734 5733 5731
5766 5762 5758 5755 5752 5749 5746 5742 5739 5735 5733 5733 5727 5723 5725 5735 5748 5760 5764 5765 5766 5767 5767 5767 5767 5766 5764 5762 5758 5754 5751 5749 5746 5744 5743 5741 5740 5738 5736 5734 5733 5731 5729
5758 5754 5750 5747 5745 5742 5739 5737 5734 5729 5724 5725 5723 5716 5712 5716 5728 5743 5751 5755 5757 5758 5758 5759 5759 5760 5758 5757 5755 5751 5748 5746 5743 5741 5740 5738 5737 5735 5734 5732 5730 5729 5727
5750 5747 5743 5741 5738 5736 5732 5730 5729 5725 5720 5716 5716 5716 5715 5715 5712 5720 5734 5741 5745 5747 5748 5750 5750 5751 5751 5749 5748 5746 5743 5741 5739 5737 5736 5734 5733 5732 5731 5729 5728 5726 5724
5742 5739 5736 5733 5731 5728 5726 5724 5722 5719 5715 5711 5708 5708 5709 5711 5712 5709 5714 5723 5730 5736 5739 5740 5740 5741 5741 5741 5740 5739 5737 5734 5732 5731 5730 5729 5728 5728 5727 5726 5725 5724 5722
5731 5730 5728 5725 5723 5721 5719 5717 5715 5712 5708 5705 5703 5702 5702 5702 5703 5704 5705 5711 5715 5723 5729 5731 5731 5731 5732 5731 5730 5729 5728 5727 5726 5725 5724 5723 5723 5722 5722 5722 5722 5721 5720
5720 5719 5717 5716 5714 5712 5711 5709 5707 5704 5702 5700 5697 5697 5698 5698 5700 5700 5700 5702 5707 5714 5719 5721 5722 5722 5723 5723 5722 5721 5720 5720 5718 5718 5717 5716 5715 5715 5716 5716 5716 5716 5716
5709 5709 5708 5706 5704 5703 5702 5701 5698 5697 5696 5695 5694 5693 5691 5693 5695 5696 5695 5695 5696 5701 5706 5709 5713 5714 5714 5714 5714 5713 5713 5713 5712 5711 5710 5708 5708 5707 5707 5708 5709 5709 5710
5696 5695 5695 5694 5693 5692 5692 5691 5688 5688 5688 5688 5687 5686 5685 5686 5688 5690 5691 5692 5688 5686 5690 5698 5701 5705 5706 5707 5706 5706 5706 5706 5704 5704 5703 5701 5701 5700 5699 5700 5701 5703 5704
5681 5680 5680 5680 5680 5681 5681 5680 5679 5680 5679 5679 5679 5678 5677 5678 5680 5682 5684 5686 5686 5683 5681 5687 5691 5695 5696 5697 5698 5698 5698 5698 5697 5696 5695 5694 5693 5692 5692 5692 5694 5696 5698
5665 5664 5665 5665 5666 5668 5669 5670 5670 5671 5671 5670 5669 5668 5668 5669 5670 5673 5675 5677 5678 5678 5674 5678 5683 5685 5686 5686 5687 5689 5690 5690 5690 5689 5687 5685 5684 5684 5684 5685 5686 5688 5691
5651 5650 5650 5651 5653 5656 5659 5660 5661 5662 5661 5659 5659 5658 5658 5660 5661 5662 5665 5667 5669 5671 5669 5667 5671 5673 5674 5676 5677 5679 5681 5683 5682 5681 5680 5678 5676 5676 5676 5677 5679 5681 5684
5639 5638 5638 5639 5641 5645 5648 5650 5652 5652 5651 5650 5650 5649 5648 5649 5650 5653 5655 5657 5659 5662 5663 5661 5660 5662 5663 5665 5666 5668 5671 5671 5673 5673 5671 5670 5669 5668 5668 5669 5670 5674 5678
5629 5628 5628 5630 5633 5635 5638 5639 5640 5640 5639 5639 5640 5640 5639 5639 5639 5642 5645 5645 5648 5650 5651 5650 5649 5648 5648 5651 5653 5654 5656 5659 5659 5661 5660 5661 5661 5661 5661 5662 5663 5666 5671
5622 5621 5622 5624 5626 5626 5628 5629 5630 5629 5629 5630 5630 5630 5630 5630 5630 5632 5633 5633 5635 5635 5636 5636 5634 5633 5632 5634 5636 5639 5641 5644 5647 5647 5648 5650 5651 5652 5652 5653 5654 5657 5661
5617 5617 5617 5618 5618 5619 5619 5621 5622 5622 5622 5622 5622 5622 5622 5622 5622 5623 5623 5622 5623 5622 5621 5620 5619 5618 5617 5619 5622 5625 5627 5628 5630 5634 5635 5637 5639 5640 5642 5643 5644 5646 5651
5613 5613 5612 5612 5610 5610 5611 5613 5614 5615 5614 5614 5614 5614 5616 5614 5613 5613 5614 5614 5614 5613 5612 5610 5607 5606 5607 5608 5609 5611 5613 5615 5616 5619 5622 5623 5626 5628 5630 5631 5634 5636 5639
5611 5610 5609 5607 5606 5604 5604 5605 5606 5608 5608 5607 5606 5606 5605 5603 5602 5603 5607 5607 5607 5606 5605 5604 5602 5600 5600 5599 5598 5600 5602 5605 5607 5609 5610 5610 5613 5615 5618 5620 5623 5624 5627
5610 5608 5606 5604 5602 5599 5598 5599 5599 5602 5601 5601 5599 5597 5598 5595 5594 5597 5599 5598 5597 5596 5596 5596 5595 5594 5592 5590 5589 5589 5590 5591 5592 5595 5597 5599 5601 5605 5608 5610 5612 5614 5616
5608 5606 5604 5602 5599 5597 5594 5594 5594 5597 5596 5595 5592 5590 5588 5588 5588 5589 5590 5589 5586 5585 5587 5589 5588 5587 5585 5583 5581 5579 5577 5576 5578 5580 5584 5587 5590 5593 5596 5599 5602 5604 5605